Location: *
(51.8167°N, 12.5000°E)
Time: 00:19:16
(UTC+00:00)

ARGOS - Pass Details

Date: 16 September 2019
Orbit: 821 x 834 km, 98.5° (Epoch: 16 October)

Event Time Altitude Azimuth Distance (km) Brightness Sun altitude
Exits shadow 19:49:52 10° 195° (SSW) 2,413 5.4 -21.9°
Maximum altitude 19:54:51 39° 264° (W) 1,221 4.3 -22.5°
Drops below altitude 10° 19:59:54 10° 332° (NNW) 2,441 6.5 -23.1°
Sets 20:02:26 0° 341° (NNW) 3,381 7.3 -23.4°
